TimeEDT,TemperatureF,Dew PointF,Humidity,Sea Level PressureIn,VisibilityMPH,Wind Direction,Wind SpeedMPH,Gust SpeedMPH,PrecipitationIn,Events,Conditions,WindDirDegrees,DateUTC
12:54 AM,54.0,45.0,72,29.79,10.0,NNE,4.6,-,N/A,,Overcast,20,2013-10-23 04:54:00
1:19 AM,51.8,48.2,88,29.82,2.5,Variable,3.5,-,0.09,Rain,Rain,0,2013-10-23 05:19:00
1:40 AM,50.0,50.0,100,29.82,3.0,Calm,Calm,-,0.18,Rain,Rain,0,2013-10-23 05:40:00
1:54 AM,50.0,50.0,100,29.79,4.0,NNE,6.9,-,0.26,Rain,Rain,20,2013-10-23 05:54:00
2:54 AM,51.1,50.0,96,29.77,10.0,Variable,3.5,-,0.07,,Overcast,0,2013-10-23 06:54:00
3:15 AM,50.0,50.0,100,29.79,2.5,Calm,Calm,-,0.04,Rain,Light Rain,0,2013-10-23 07:15:00
3:26 AM,50.0,48.2,94,29.78,5.0,NE,9.2,-,0.10,Rain,Light Rain,40,2013-10-23 07:26:00
3:39 AM,50.0,50.0,100,29.78,10.0,Calm,Calm,-,0.11,Rain,Light Rain,0,2013-10-23 07:39:00
3:54 AM,50.0,48.9,96,29.77,5.0,NNE,3.5,-,0.17,Rain,Light Rain,20,2013-10-23 07:54:00
4:54 AM,48.9,48.9,100,29.75,10.0,NNE,6.9,-,0.00,,Overcast,30,2013-10-23 08:54:00
5:54 AM,46.9,46.9,100,29.75,9.0,NNE,8.1,-,N/A,,Overcast,20,2013-10-23 09:54:00
6:54 AM,46.0,45.0,96,29.75,10.0,NNE,5.8,-,N/A,,Overcast,30,2013-10-23 10:54:00
7:54 AM,45.0,45.0,100,29.75,9.0,ENE,8.1,-,N/A,,Overcast,60,2013-10-23 11:54:00
8:54 AM,45.0,44.1,97,29.77,10.0,ENE,4.6,-,N/A,,Overcast,60,2013-10-23 12:54:00
9:54 AM,46.9,44.1,90,29.77,10.0,Variable,3.5,-,N/A,,Overcast,0,2013-10-23 13:54:00
10:14 AM,46.4,42.8,87,29.76,10.0,NE,4.6,29.9,N/A,,Overcast,50,2013-10-23 14:14:00
10:54 AM,48.0,43.0,83,29.76,10.0,NE,4.6,-,N/A,,Overcast,40,2013-10-23 14:54:00
11:54 AM,48.9,43.0,80,29.75,10.0,Calm,Calm,-,N/A,,Overcast,0,2013-10-23 15:54:00
12:48 PM,48.2,44.6,87,29.76,2.5,West,6.9,-,0.01,Rain,Heavy Rain,280,2013-10-23 16:48:00
12:54 PM,48.0,46.0,93,29.75,3.0,Variable,3.5,-,0.04,Rain,Heavy Rain,0,2013-10-23 16:54:00
12:57 PM,48.2,46.4,93,29.75,1.8,Calm,Calm,-,0.02,Rain,Rain,0,2013-10-23 16:57:00
1:01 PM,48.2,46.4,93,29.75,3.0,Variable,5.8,-,0.03,Rain,Rain,0,2013-10-23 17:01:00
1:13 PM,50.0,46.4,87,29.74,3.0,Calm,Calm,-,0.04,,Overcast,0,2013-10-23 17:13:00
1:54 PM,55.0,46.0,72,29.72,10.0,Variable,3.5,-,0.04,,Partly Cloudy,0,2013-10-23 17:54:00
2:54 PM,57.0,42.1,57,29.72,10.0,Variable,5.8,18.4,0.00,,Partly Cloudy,0,2013-10-23 18:54:00
3:54 PM,55.9,37.9,51,29.74,10.0,WNW,8.1,-,N/A,,Overcast,290,2013-10-23 19:54:00
4:54 PM,54.0,37.9,55,29.78,10.0,West,10.4,25.3,0.00,,Scattered Clouds,280,2013-10-23 20:54:00
5:54 PM,52.0,37.9,59,29.81,10.0,West,9.2,-,N/A,,Scattered Clouds,270,2013-10-23 21:54:00
6:54 PM,48.9,37.0,64,29.86,10.0,West,6.9,-,0.00,,Overcast,270,2013-10-23 22:54:00
7:54 PM,45.0,36.0,71,29.91,10.0,West,8.1,-,N/A,,Clear,270,2013-10-23 23:54:00
8:54 PM,44.1,34.0,68,29.94,10.0,West,8.1,-,N/A,,Clear,280,2013-10-24 00:54:00
9:54 PM,44.1,32.0,63,29.97,10.0,WNW,6.9,-,N/A,,Clear,290,2013-10-24 01:54:00
10:54 PM,42.1,32.0,67,29.99,10.0,West,3.5,-,N/A,,Clear,280,2013-10-24 02:54:00
11:54 PM,39.9,32.0,73,30.01,10.0,SW,4.6,-,N/A,,Scattered Clouds,230,2013-10-24 03:54:00